When you browse on this site, cookies collect data to enhance your experience and personalize the content and advertising you see.
Visit our Privacy Policy to learn more. By continuing to use the site, you agree to this use of cookies and data.
  • En España
  • Lista de países
  • Para 7 días
  • Temperatura del agua
  • El tiempo en el mapa
  • Informadores
  • user-avatar
    Iniciar sesión

    Tiempo cada hora Beverly

    Hoy, 13 Diciembre, Viernes

    Tiempo Temperatura Precipitaciones Viento Presión Humedad
    00:00 +4°C° 0 mm 4 mps 725 mmHg 93%
    01:00 +4°C° 0 mm 4 mps 725 mmHg 93%
    02:00 +3°C° 0 mm 4 mps 725 mmHg 94%
    03:00 +3°C° 0 mm 4 mps 725 mmHg 95%
    04:00 +3°C° 0 mm 4 mps 726 mmHg 93%
    05:00 +3°C° 0 mm 4 mps 726 mmHg 91%
    06:00 +2°C° 0 mm 5 mps 727 mmHg 89%
    07:00 +2°C° 0 mm 5 mps 728 mmHg 89%
    08:00 +2°C° 0 mm 5 mps 728 mmHg 90%
    09:00 +3°C° 0 mm 5 mps 729 mmHg 90%
    10:00 +3°C° 0 mm 5 mps 730 mmHg 86%
    11:00 +4°C° 0 mm 6 mps 730 mmHg 82%
    12:00 +5°C° 0 mm 7 mps 731 mmHg 79%
    13:00 +5°C° 0 mm 7 mps 731 mmHg 80%
    14:00 +5°C° 0 mm 6 mps 731 mmHg 81%
    15:00 +4°C° 0 mm 6 mps 731 mmHg 82%
    16:00 +5°C° 0 mm 6 mps 731 mmHg 82%
    17:00 +5°C° 0 mm 6 mps 732 mmHg 82%
    18:00 +5°C° 0 mm 7 mps 732 mmHg 81%
    19:00 +4°C° 0 mm 7 mps 732 mmHg 81%
    20:00 +4°C° 0 mm 7 mps 732 mmHg 80%
    21:00 +4°C° 0 mm 7 mps 733 mmHg 79%
    22:00 +3°C° 0 mm 6 mps 732 mmHg 79%
    23:00 +3°C° 0 mm 6 mps 732 mmHg 79%

    Mañana, 14 Diciembre, Sábado

    Tiempo Temperatura Precipitaciones Viento Presión Humedad
    00:00 +2°C° 0 mm 6 mps 732 mmHg 79%
    01:00 +2°C° 0 mm 6 mps 732 mmHg 81%
    02:00 +2°C° 0 mm 6 mps 732 mmHg 83%
    03:00 +2°C° 0 mm 6 mps 732 mmHg 85%
    04:00 +2°C° 0.6 mm 7 mps 732 mmHg 82%
    05:00 +1°C° 0.6 mm 8 mps 733 mmHg 80%
    06:00 +1°C° 0.6 mm 9 mps 733 mmHg 77%
    07:00 +1°C° 0 mm 9 mps 734 mmHg 73%
    08:00 +1°C° 0 mm 9 mps 734 mmHg 70%
    09:00 0°C° 0 mm 9 mps 735 mmHg 67%
    10:00 +1°C° 0.1 mm 10 mps 735 mmHg 65%
    11:00 +1°C° 0.1 mm 10 mps 736 mmHg 63%
    12:00 +2°C° 0.1 mm 10 mps 736 mmHg 61%
    13:00 +1°C° 0.1 mm 10 mps 737 mmHg 61%
    14:00 +1°C° 0.1 mm 9 mps 737 mmHg 61%
    15:00 +1°C° 0.1 mm 9 mps 738 mmHg 61%
    16:00 +1°C° 0 mm 8 mps 738 mmHg 63%
    17:00 0°C° 0 mm 8 mps 738 mmHg 64%
    18:00 0°C° 0 mm 7 mps 738 mmHg 65%
    19:00 0°C° 0.6 mm 7 mps 737 mmHg 75%
    20:00 -1°C° 0.6 mm 7 mps 737 mmHg 85%
    21:00 -1°C° 0.6 mm 7 mps 736 mmHg 94%
    22:00 0°C° 0.3 mm 9 mps 735 mmHg 89%
    23:00 0°C° 0.3 mm 10 mps 735 mmHg 84%

    Pasado mañana, 15 Diciembre, Domingo

    Tiempo Temperatura Precipitaciones Viento Presión Humedad
    00:00 +1°C° 0.3 mm 11 mps 734 mmHg 79%
    01:00 +1°C° 0.1 mm 10 mps 735 mmHg 81%
    02:00 0°C° 0.1 mm 10 mps 735 mmHg 82%
    03:00 0°C° 0.1 mm 9 mps 736 mmHg 84%
    04:00 -1°C° 0.1 mm 8 mps 737 mmHg 83%
    05:00 -1°C° 0.1 mm 7 mps 739 mmHg 83%
    06:00 -1°C° 0.1 mm 6 mps 740 mmHg 82%
    07:00 -1°C° 0 mm 6 mps 741 mmHg 81%
    08:00 -1°C° 0 mm 6 mps 742 mmHg 80%
    09:00 -1°C° 0 mm 6 mps 743 mmHg 78%
    10:00 0°C° 0.1 mm 7 mps 743 mmHg 79%
    11:00 +2°C° 0.1 mm 7 mps 743 mmHg 79%
    12:00 +2°C° 0.1 mm 8 mps 743 mmHg 80%
    13:00 +2°C° 0 mm 8 mps 743 mmHg 79%
    14:00 +2°C° 0 mm 8 mps 743 mmHg 78%
    15:00 +2°C° 0 mm 8 mps 743 mmHg 78%
    16:00 +2°C° 0 mm 7 mps 744 mmHg 79%
    17:00 +2°C° 0 mm 7 mps 744 mmHg 81%
    18:00 +2°C° 0 mm 7 mps 744 mmHg 82%
    19:00 +2°C° 0.1 mm 7 mps 744 mmHg 85%
    20:00 +2°C° 0.1 mm 6 mps 744 mmHg 87%
    21:00 +2°C° 0.1 mm 6 mps 744 mmHg 90%
    22:00 +2°C° 0 mm 6 mps 745 mmHg 89%
    23:00 +2°C° 0 mm 6 mps 745 mmHg 88%

    16 Diciembre, Lunes

    Tiempo Temperatura Precipitaciones Viento Presión Humedad
    00:00 +2°C° 0 mm 6 mps 745 mmHg 87%
    01:00 +2°C° 0 mm 6 mps 745 mmHg 86%
    02:00 0°C° 0 mm 7 mps 745 mmHg 86%
    03:00 0°C° 0 mm 7 mps 745 mmHg 85%
    04:00 +2°C° 0 mm 7 mps 745 mmHg 85%
    05:00 +2°C° 0 mm 7 mps 744 mmHg 84%
    06:00 +2°C° 0 mm 7 mps 744 mmHg 84%
    07:00 +2°C° 0 mm 7 mps 744 mmHg 83%
    08:00 +1°C° 0 mm 8 mps 745 mmHg 82%
    09:00 +2°C° 0 mm 8 mps 745 mmHg 81%
    10:00 +2°C° 0 mm 8 mps 745 mmHg 78%
    11:00 +4°C° 0 mm 8 mps 745 mmHg 75%
    12:00 +5°C° 0 mm 8 mps 746 mmHg 73%
    13:00 +4°C° 0 mm 7 mps 746 mmHg 74%
    14:00 +4°C° 0 mm 7 mps 746 mmHg 75%
    15:00 +4°C° 0 mm 6 mps 747 mmHg 76%
    16:00 +3°C° 0 mm 6 mps 747 mmHg 79%
    17:00 +2°C° 0 mm 5 mps 748 mmHg 81%
    18:00 +2°C° 0 mm 5 mps 748 mmHg 84%
    19:00 +1°C° 0 mm 5 mps 749 mmHg 84%
    20:00 +1°C° 0 mm 5 mps 750 mmHg 84%
    21:00 0°C° 0 mm 4 mps 750 mmHg 83%
    22:00 0°C° 0 mm 4 mps 750 mmHg 83%
    23:00 0°C° 0 mm 4 mps 751 mmHg 84%

    17 Diciembre, Martes

    Tiempo Temperatura Precipitaciones Viento Presión Humedad
    00:00 0°C° 0 mm 4 mps 751 mmHg 84%
    01:00 +1°C° 0 mm 3 mps 751 mmHg 85%
    02:00 +1°C° 0 mm 3 mps 751 mmHg 85%
    03:00 +1°C° 0 mm 2 mps 751 mmHg 86%
    04:00 +1°C° 0 mm 2 mps 752 mmHg 87%
    05:00 +1°C° 0 mm 2 mps 752 mmHg 87%
    06:00 +1°C° 0 mm 2 mps 752 mmHg 88%
    07:00 +1°C° 0 mm 2 mps 753 mmHg 88%
    08:00 +1°C° 0 mm 2 mps 753 mmHg 87%
    09:00 +1°C° 0 mm 2 mps 753 mmHg 87%
    10:00 +2°C° 0 mm 2 mps 753 mmHg 84%
    11:00 +3°C° 0 mm 2 mps 753 mmHg 81%
    12:00 +5°C° 0 mm 1 mps 754 mmHg 79%
    13:00 +4°C° 0 mm 1 mps 754 mmHg 79%
    14:00 +4°C° 0 mm 1 mps 754 mmHg 80%
    15:00 +4°C° 0 mm 1 mps 754 mmHg 81%
    16:00 +3°C° 0 mm 1 mps 754 mmHg 81%
    17:00 +3°C° 0 mm 1 mps 754 mmHg 82%
    18:00 +2°C° 0 mm 1 mps 754 mmHg 82%
    19:00 +2°C° 0 mm 1 mps 755 mmHg 83%
    20:00 +2°C° 0 mm 1 mps 755 mmHg 84%
    21:00 +2°C° 0 mm 1 mps 755 mmHg 85%
    22:00 +2°C° 0 mm 1 mps 755 mmHg 85%
    23:00 +2°C° 0 mm 1 mps 756 mmHg 86%

    18 Diciembre, Miércoles

    Tiempo Temperatura Precipitaciones Viento Presión Humedad
    00:00 +2°C° 0 mm 1 mps 756 mmHg 87%
    01:00 +2°C° 0 mm 1 mps 756 mmHg 87%
    02:00 +1°C° 0 mm 2 mps 756 mmHg 88%
    03:00 +1°C° 0 mm 2 mps 756 mmHg 89%
    04:00 +1°C° 0 mm 2 mps 756 mmHg 89%
    05:00 +1°C° 0 mm 2 mps 756 mmHg 90%
    06:00 +1°C° 0 mm 2 mps 757 mmHg 90%
    07:00 +1°C° 0 mm 2 mps 757 mmHg 90%
    08:00 +1°C° 0 mm 2 mps 758 mmHg 90%
    09:00 +1°C° 0 mm 2 mps 758 mmHg 90%
    10:00 +2°C° 0 mm 2 mps 758 mmHg 86%
    11:00 +3°C° 0 mm 2 mps 759 mmHg 81%
    12:00 +3°C° 0 mm 3 mps 759 mmHg 77%
    13:00 +3°C° 0 mm 2 mps 759 mmHg 80%
    14:00 +3°C° 0 mm 2 mps 759 mmHg 82%
    15:00 +2°C° 0 mm 2 mps 759 mmHg 85%
    16:00 +2°C° 0 mm 2 mps 758 mmHg 86%
    17:00 +1°C° 0 mm 2 mps 758 mmHg 88%
    18:00 0°C° 0 mm 3 mps 758 mmHg 89%
    19:00 -1°C° 0 mm 3 mps 758 mmHg 89%
    20:00 -1°C° 0 mm 3 mps 759 mmHg 89%
    21:00 -1°C° 0 mm 3 mps 759 mmHg 90%
    22:00 -1°C° 0 mm 3 mps 758 mmHg 90%
    23:00 -1°C° 0 mm 3 mps 758 mmHg 90%
    Mostrar más